Volver al catálogo

THOR ABLESTAR DEB

ActivoLEO
NORAD 657·DEBRIS·🇺🇸 United States

Lanzado Jun 29, 1961 desde Cape Canaveral Space Force Station

Loading…

Próximos Pases (próximas 24 horas)

TLE

ActualizadoSource: Space-Track

Época: Sep 14, 2026, 03:58 UTC

1 00657U 61015HJ  26257.16563433  .00000260  00000-0  68163-3 0  9999
2 00657  66.2492 165.1287 0342511 338.9185 173.1997 13.11890909116299

Sigue THOR ABLESTAR DEB en tiempo real con AllMySat

Download on the App Store